Year,Month,Day,Hour,Minute,Value (Times are PST for temperature in C)
2014,04,12,00,00,7.40
2014,04,12,00,01,7.40
2014,04,12,00,02,7.30
2014,04,12,00,03,7.30
2014,04,12,00,04,7.30
2014,04,12,00,05,7.30
2014,04,12,00,06,7.30
2014,04,12,00,07,7.20
2014,04,12,00,08,7.20
2014,04,12,00,09,7.20
2014,04,12,00,10,7.20
2014,04,12,00,11,7.10
2014,04,12,00,12,7.10
2014,04,12,00,13,7.10
2014,04,12,00,14,7.00
2014,04,12,00,15,7.00
2014,04,12,00,16,7.00
2014,04,12,00,17,6.90
2014,04,12,00,18,6.90
2014,04,12,00,19,6.90
2014,04,12,00,20,6.80
2014,04,12,00,21,6.80
2014,04,12,00,22,6.80
2014,04,12,00,23,6.80
2014,04,12,00,24,6.70
2014,04,12,00,25,6.70
2014,04,12,00,26,6.60
2014,04,12,00,27,6.60
2014,04,12,00,28,6.60
2014,04,12,00,29,6.50
2014,04,12,00,30,6.50
2014,04,12,00,31,6.40
2014,04,12,00,32,6.40
2014,04,12,00,33,6.40
2014,04,12,00,34,6.30
2014,04,12,00,35,6.30
2014,04,12,00,36,6.30
2014,04,12,00,37,6.20
2014,04,12,00,38,6.20
2014,04,12,00,39,6.20
2014,04,12,00,40,6.20
2014,04,12,00,41,6.10
2014,04,12,00,42,6.10
2014,04,12,00,43,6.10
2014,04,12,00,44,6.10
2014,04,12,00,45,6.10
2014,04,12,00,46,6.00
2014,04,12,00,47,6.00
2014,04,12,00,48,6.00
2014,04,12,00,49,6.00
2014,04,12,00,50,6.00
2014,04,12,00,51,6.00
2014,04,12,00,52,6.00
2014,04,12,00,53,6.00
2014,04,12,00,54,5.90
2014,04,12,00,55,5.90
2014,04,12,00,56,5.90
2014,04,12,00,57,5.90
2014,04,12,00,58,5.90
2014,04,12,00,59,5.90
2014,04,12,01,00,5.90
2014,04,12,01,01,5.80
2014,04,12,01,02,5.80
2014,04,12,01,03,5.80
2014,04,12,01,04,5.80
2014,04,12,01,05,5.80
2014,04,12,01,06,5.80
2014,04,12,01,07,5.70
2014,04,12,01,08,5.70
2014,04,12,01,09,5.70
2014,04,12,01,10,5.70
2014,04,12,01,11,5.70
2014,04,12,01,12,5.70
2014,04,12,01,13,5.70
2014,04,12,01,14,5.70
2014,04,12,01,15,5.80
2014,04,12,01,16,5.80
2014,04,12,01,17,5.80
2014,04,12,01,18,5.80
2014,04,12,01,19,5.80
2014,04,12,01,20,5.80
2014,04,12,01,21,5.80
2014,04,12,01,22,5.80
2014,04,12,01,23,5.80
2014,04,12,01,24,5.80
2014,04,12,01,25,5.80
2014,04,12,01,26,5.80
2014,04,12,01,27,5.80
2014,04,12,01,28,5.80
2014,04,12,01,29,5.80
2014,04,12,01,30,5.80
2014,04,12,01,31,5.80
2014,04,12,01,32,5.80
2014,04,12,01,33,5.80
2014,04,12,01,34,5.80
2014,04,12,01,35,5.80
2014,04,12,01,36,5.80
2014,04,12,01,37,5.80
2014,04,12,01,38,5.80
2014,04,12,01,39,5.80
2014,04,12,01,40,5.80
2014,04,12,01,41,5.80
2014,04,12,01,42,5.80
2014,04,12,01,43,5.70
2014,04,12,01,44,5.70
2014,04,12,01,45,5.70
2014,04,12,01,46,5.70
2014,04,12,01,47,5.60
2014,04,12,01,48,5.60
2014,04,12,01,49,5.60
2014,04,12,01,50,5.60
2014,04,12,01,51,5.50
2014,04,12,01,52,5.50
2014,04,12,01,53,5.50
2014,04,12,01,54,5.40
2014,04,12,01,55,5.40
2014,04,12,01,56,5.40
2014,04,12,01,57,5.40
2014,04,12,01,58,5.40
2014,04,12,01,59,5.30
2014,04,12,02,00,5.30
2014,04,12,02,01,5.30
2014,04,12,02,02,5.30
2014,04,12,02,03,5.20
2014,04,12,02,04,5.20
2014,04,12,02,05,5.20
2014,04,12,02,06,5.20
2014,04,12,02,07,5.20
2014,04,12,02,08,5.20
2014,04,12,02,09,5.20
2014,04,12,02,10,5.10
2014,04,12,02,11,5.10
2014,04,12,02,12,5.10
2014,04,12,02,13,5.10
2014,04,12,02,14,5.10
2014,04,12,02,15,5.10
2014,04,12,02,16,5.10
2014,04,12,02,17,5.10
2014,04,12,02,18,5.10
2014,04,12,02,19,5.10
2014,04,12,02,20,5.10
2014,04,12,02,21,5.10
2014,04,12,02,22,5.10
2014,04,12,02,23,5.10
2014,04,12,02,24,5.00
2014,04,12,02,25,5.00
2014,04,12,02,26,5.00
2014,04,12,02,27,5.00
2014,04,12,02,28,5.00
2014,04,12,02,29,4.90
2014,04,12,02,30,4.90
2014,04,12,02,31,4.90
2014,04,12,02,32,4.90
2014,04,12,02,33,4.90
2014,04,12,02,34,4.80
2014,04,12,02,35,4.80
2014,04,12,02,36,4.80
2014,04,12,02,37,4.80
2014,04,12,02,38,4.80
2014,04,12,02,39,4.80
2014,04,12,02,40,4.80
2014,04,12,02,41,4.70
2014,04,12,02,42,4.70
2014,04,12,02,43,4.70
2014,04,12,02,44,4.70
2014,04,12,02,45,4.70
2014,04,12,02,46,4.60
2014,04,12,02,47,4.60
2014,04,12,02,48,4.60
2014,04,12,02,49,4.60
2014,04,12,02,50,4.50
2014,04,12,02,51,4.50
2014,04,12,02,52,4.50
2014,04,12,02,53,4.40
2014,04,12,02,54,4.40
2014,04,12,02,55,4.40
2014,04,12,02,56,4.40
2014,04,12,02,57,4.40
2014,04,12,02,58,4.30
2014,04,12,02,59,4.30
2014,04,12,03,00,4.30
2014,04,12,03,01,4.30
2014,04,12,03,02,4.30
2014,04,12,03,03,4.30
2014,04,12,03,04,4.30
2014,04,12,03,05,4.30
2014,04,12,03,06,4.30
2014,04,12,03,07,4.30
2014,04,12,03,08,4.20
2014,04,12,03,09,4.20
2014,04,12,03,10,4.20
2014,04,12,03,11,4.20
2014,04,12,03,12,4.20
2014,04,12,03,13,4.20
2014,04,12,03,14,4.10
2014,04,12,03,15,4.10
2014,04,12,03,16,4.10
2014,04,12,03,17,4.10
2014,04,12,03,18,4.10
2014,04,12,03,19,4.10
2014,04,12,03,20,4.20
2014,04,12,03,21,4.20
2014,04,12,03,22,4.10
2014,04,12,03,23,4.20
2014,04,12,03,24,4.20
2014,04,12,03,25,4.10
2014,04,12,03,26,4.20
2014,04,12,03,27,4.20
2014,04,12,03,28,4.20
2014,04,12,03,29,4.20
2014,04,12,03,30,4.30
2014,04,12,03,31,4.30
2014,04,12,03,32,4.30
2014,04,12,03,33,4.30
2014,04,12,03,34,4.30
2014,04,12,03,35,4.30
2014,04,12,03,36,4.30
2014,04,12,03,37,4.30
2014,04,12,03,38,4.30
2014,04,12,03,39,4.30
2014,04,12,03,40,4.30
2014,04,12,03,41,4.30
2014,04,12,03,42,4.20
2014,04,12,03,43,4.20
2014,04,12,03,44,4.20
2014,04,12,03,45,4.30
2014,04,12,03,46,4.30
2014,04,12,03,47,4.30
2014,04,12,03,48,4.30
2014,04,12,03,49,4.20
2014,04,12,03,50,4.20
2014,04,12,03,51,4.20
2014,04,12,03,52,4.20
2014,04,12,03,53,4.20
2014,04,12,03,54,4.20
2014,04,12,03,55,4.30
2014,04,12,03,56,4.30
2014,04,12,03,57,4.30
2014,04,12,03,58,4.30
2014,04,12,03,59,4.30
2014,04,12,04,00,4.30
2014,04,12,04,01,4.30
2014,04,12,04,02,4.30
2014,04,12,04,03,4.30
2014,04,12,04,04,4.30
2014,04,12,04,05,4.30
2014,04,12,04,06,4.40
2014,04,12,04,07,4.40
2014,04,12,04,08,4.40
2014,04,12,04,09,4.40
2014,04,12,04,10,4.50
2014,04,12,04,11,4.50
2014,04,12,04,12,4.50
2014,04,12,04,13,4.60
2014,04,12,04,14,4.60
2014,04,12,04,15,4.60
2014,04,12,04,16,4.70
2014,04,12,04,17,4.70
2014,04,12,04,18,4.80
2014,04,12,04,19,4.80
2014,04,12,04,20,4.80
2014,04,12,04,21,4.90
2014,04,12,04,22,4.90
2014,04,12,04,23,4.90
2014,04,12,04,24,4.90
2014,04,12,04,25,4.90
2014,04,12,04,26,5.00
2014,04,12,04,27,5.10
2014,04,12,04,28,5.10
2014,04,12,04,29,5.10
2014,04,12,04,30,5.10
2014,04,12,04,31,5.20
2014,04,12,04,32,5.20
2014,04,12,04,33,5.20
2014,04,12,04,34,5.20
2014,04,12,04,35,5.30
2014,04,12,04,36,5.30
2014,04,12,04,37,5.30
2014,04,12,04,38,5.30
2014,04,12,04,39,5.30
2014,04,12,04,40,5.30
2014,04,12,04,41,5.40
2014,04,12,04,42,5.40
2014,04,12,04,43,5.40
2014,04,12,04,44,5.30
2014,04,12,04,45,5.30
2014,04,12,04,46,5.30
2014,04,12,04,47,5.30
2014,04,12,04,48,5.20
2014,04,12,04,49,5.20
2014,04,12,04,50,5.20
2014,04,12,04,51,5.30
2014,04,12,04,52,5.30
2014,04,12,04,53,5.30
2014,04,12,04,54,5.30
2014,04,12,04,55,5.30
2014,04,12,04,56,5.30
2014,04,12,04,57,5.30
2014,04,12,04,58,5.30
2014,04,12,04,59,5.30
2014,04,12,05,00,5.30
2014,04,12,05,01,5.30
2014,04,12,05,02,5.30
2014,04,12,05,03,5.30
2014,04,12,05,04,5.30
2014,04,12,05,05,5.30
2014,04,12,05,06,5.30
2014,04,12,05,07,5.30
2014,04,12,05,08,5.30
2014,04,12,05,09,5.30
2014,04,12,05,10,5.20
2014,04,12,05,11,5.20
2014,04,12,05,12,5.20
2014,04,12,05,13,5.20
2014,04,12,05,14,5.20
2014,04,12,05,15,5.20
2014,04,12,05,16,5.10
2014,04,12,05,17,5.10
2014,04,12,05,18,5.10
2014,04,12,05,19,5.10
2014,04,12,05,20,5.10
2014,04,12,05,21,5.10
2014,04,12,05,22,5.10
2014,04,12,05,23,5.10
2014,04,12,05,24,5.10
2014,04,12,05,25,5.10
2014,04,12,05,26,5.10
2014,04,12,05,27,5.10
2014,04,12,05,28,5.10
2014,04,12,05,29,5.10
2014,04,12,05,30,5.00
2014,04,12,05,31,5.00
2014,04,12,05,32,5.00
2014,04,12,05,33,5.00
2014,04,12,05,34,4.90
2014,04,12,05,35,4.90
2014,04,12,05,36,4.90
2014,04,12,05,37,4.90
2014,04,12,05,38,4.90
2014,04,12,05,39,4.90
2014,04,12,05,40,4.80
2014,04,12,05,41,4.80
2014,04,12,05,42,4.80
2014,04,12,05,43,4.80
2014,04,12,05,44,4.80
2014,04,12,05,45,4.80
2014,04,12,05,46,4.80
2014,04,12,05,47,4.80
2014,04,12,05,48,4.80
2014,04,12,05,49,4.80
2014,04,12,05,50,4.80
2014,04,12,05,51,4.80
2014,04,12,05,52,4.80
2014,04,12,05,53,4.80
2014,04,12,05,54,4.80
2014,04,12,05,55,4.80
2014,04,12,05,56,4.80
2014,04,12,05,57,4.80
2014,04,12,05,58,4.80
2014,04,12,05,59,4.80
2014,04,12,06,00,4.80
2014,04,12,06,01,4.80
2014,04,12,06,02,4.80
2014,04,12,06,03,4.80
2014,04,12,06,04,4.80
2014,04,12,06,05,4.80
2014,04,12,06,06,4.80
2014,04,12,06,07,4.80
2014,04,12,06,08,4.80
2014,04,12,06,09,4.80
2014,04,12,06,10,4.80
2014,04,12,06,11,4.80
2014,04,12,06,12,4.80
2014,04,12,06,13,4.80
2014,04,12,06,14,4.80
2014,04,12,06,15,4.80
2014,04,12,06,16,4.90
2014,04,12,06,17,4.90
2014,04,12,06,18,4.90
2014,04,12,06,19,4.90
2014,04,12,06,20,4.90
2014,04,12,06,21,4.90
2014,04,12,06,22,4.90
2014,04,12,06,23,4.90
2014,04,12,06,24,4.90
2014,04,12,06,25,4.90
2014,04,12,06,26,4.90
2014,04,12,06,27,4.90
2014,04,12,06,28,4.90
2014,04,12,06,29,4.90
2014,04,12,06,30,4.80
2014,04,12,06,31,4.80
2014,04,12,06,32,4.80
2014,04,12,06,33,4.80
2014,04,12,06,34,4.80
2014,04,12,06,35,4.80
2014,04,12,06,36,4.80
2014,04,12,06,37,4.80
2014,04,12,06,38,4.80
2014,04,12,06,39,4.80
2014,04,12,06,40,4.80
2014,04,12,06,41,4.80
2014,04,12,06,42,4.80
2014,04,12,06,43,4.80
2014,04,12,06,44,4.80
2014,04,12,06,45,4.80
2014,04,12,06,46,4.80
2014,04,12,06,47,4.70
2014,04,12,06,48,4.70
2014,04,12,06,49,4.70
2014,04,12,06,50,4.70
2014,04,12,06,51,4.70
2014,04,12,06,52,4.70
2014,04,12,06,53,4.70
2014,04,12,06,54,4.70
2014,04,12,06,55,4.70
2014,04,12,06,56,4.70
2014,04,12,06,57,4.70
2014,04,12,06,58,4.70
2014,04,12,06,59,4.70
2014,04,12,07,00,4.70
2014,04,12,07,01,4.70
2014,04,12,07,02,4.70
2014,04,12,07,03,4.70
2014,04,12,07,04,4.70
2014,04,12,07,05,4.70
2014,04,12,07,06,4.70
2014,04,12,07,07,4.70
2014,04,12,07,08,4.80
2014,04,12,07,09,4.80
2014,04,12,07,10,4.80
2014,04,12,07,11,4.80
2014,04,12,07,12,4.80
2014,04,12,07,13,4.80
2014,04,12,07,14,4.80
2014,04,12,07,15,4.80
2014,04,12,07,16,4.80
2014,04,12,07,17,4.80
2014,04,12,07,18,4.90
2014,04,12,07,19,4.90
2014,04,12,07,20,4.90
2014,04,12,07,21,5.00
2014,04,12,07,22,5.00
2014,04,12,07,23,5.10
2014,04,12,07,24,5.10
2014,04,12,07,25,5.10
2014,04,12,07,26,5.20
2014,04,12,07,27,5.20
2014,04,12,07,28,5.30
2014,04,12,07,29,5.30
2014,04,12,07,30,5.30
2014,04,12,07,31,5.40
2014,04,12,07,32,5.40
2014,04,12,07,33,5.50
2014,04,12,07,34,5.50
2014,04,12,07,35,5.60
2014,04,12,07,36,5.70
2014,04,12,07,37,5.70
2014,04,12,07,38,5.80
2014,04,12,07,39,5.80
2014,04,12,07,40,5.90
2014,04,12,07,41,5.90
2014,04,12,07,42,6.00
2014,04,12,07,43,6.00
2014,04,12,07,44,6.10
2014,04,12,07,45,6.20
2014,04,12,07,46,6.20
2014,04,12,07,47,6.30
2014,04,12,07,48,6.30
2014,04,12,07,49,6.40
2014,04,12,07,50,6.40
2014,04,12,07,51,6.50
2014,04,12,07,52,6.60
2014,04,12,07,53,6.60
2014,04,12,07,54,6.70
2014,04,12,07,55,6.80
2014,04,12,07,56,6.90
2014,04,12,07,57,6.90
2014,04,12,07,58,7.00
2014,04,12,07,59,7.00
2014,04,12,08,00,7.10
2014,04,12,08,01,7.20
2014,04,12,08,02,7.20
2014,04,12,08,03,7.20
2014,04,12,08,04,7.30
2014,04,12,08,05,7.30
2014,04,12,08,06,7.30
2014,04,12,08,07,7.40
2014,04,12,08,08,7.40
2014,04,12,08,09,7.40
2014,04,12,08,10,7.40
2014,04,12,08,11,7.50
2014,04,12,08,12,7.50
2014,04,12,08,13,7.60
2014,04,12,08,14,7.60
2014,04,12,08,15,7.70
2014,04,12,08,16,7.70
2014,04,12,08,17,7.70
2014,04,12,08,18,7.80
2014,04,12,08,19,7.80
2014,04,12,08,20,7.90
2014,04,12,08,21,7.90
2014,04,12,08,22,7.90
2014,04,12,08,23,7.90
2014,04,12,08,24,8.00
2014,04,12,08,25,8.00
2014,04,12,08,26,8.00
2014,04,12,08,27,8.10
2014,04,12,08,28,8.10
2014,04,12,08,29,8.20
2014,04,12,08,30,8.20
2014,04,12,08,31,8.30
2014,04,12,08,32,8.30
2014,04,12,08,33,8.40
2014,04,12,08,34,8.50
2014,04,12,08,35,8.50
2014,04,12,08,36,8.60
2014,04,12,08,37,8.60
2014,04,12,08,38,8.60
2014,04,12,08,39,8.70
2014,04,12,08,40,8.70
2014,04,12,08,41,8.80
2014,04,12,08,42,8.80
2014,04,12,08,43,8.80
2014,04,12,08,44,8.90
2014,04,12,08,45,8.90
2014,04,12,08,46,8.90
2014,04,12,08,47,9.00
2014,04,12,08,48,9.00
2014,04,12,08,49,9.00
2014,04,12,08,50,9.10
2014,04,12,08,51,9.20
2014,04,12,08,52,9.20
2014,04,12,08,53,9.20
2014,04,12,08,54,9.30
2014,04,12,08,55,9.30
2014,04,12,08,56,9.30
2014,04,12,08,57,9.40
2014,04,12,08,58,9.40
2014,04,12,08,59,9.50
2014,04,12,09,00,9.50
2014,04,12,09,01,9.60
2014,04,12,09,02,9.60
2014,04,12,09,03,9.70
2014,04,12,09,04,9.70
2014,04,12,09,05,9.70
2014,04,12,09,06,9.70
2014,04,12,09,07,9.70
2014,04,12,09,08,9.70
2014,04,12,09,09,9.70
2014,04,12,09,10,9.80
2014,04,12,09,11,9.80
2014,04,12,09,12,9.80
2014,04,12,09,13,9.80
2014,04,12,09,14,9.90
2014,04,12,09,15,9.90
2014,04,12,09,16,10.00
2014,04,12,09,17,10.00
2014,04,12,09,18,10.00
2014,04,12,09,19,10.00
2014,04,12,09,20,10.10
2014,04,12,09,21,10.00
2014,04,12,09,22,10.10
2014,04,12,09,23,10.10
2014,04,12,09,24,10.20
2014,04,12,09,25,10.30
2014,04,12,09,26,10.40
2014,04,12,09,27,10.40
2014,04,12,09,28,10.40
2014,04,12,09,29,10.40
2014,04,12,09,30,10.40
2014,04,12,09,31,10.40
2014,04,12,09,32,10.50
2014,04,12,09,33,10.60
2014,04,12,09,34,10.60
2014,04,12,09,35,10.60
2014,04,12,09,36,10.70
2014,04,12,09,37,10.80
2014,04,12,09,38,10.80
2014,04,12,09,39,10.80
2014,04,12,09,40,10.80
2014,04,12,09,41,10.80
2014,04,12,09,42,10.80
2014,04,12,09,43,10.80
2014,04,12,09,44,10.80
2014,04,12,09,45,10.80
2014,04,12,09,46,10.80
2014,04,12,09,47,10.80
2014,04,12,09,48,10.80
2014,04,12,09,49,10.80
2014,04,12,09,50,10.80
2014,04,12,09,51,10.80
2014,04,12,09,52,10.90
2014,04,12,09,53,10.90
2014,04,12,09,54,11.00
2014,04,12,09,55,11.10
2014,04,12,09,56,11.20
2014,04,12,09,57,11.30
2014,04,12,09,58,11.20
2014,04,12,09,59,11.20
2014,04,12,10,00,11.20
2014,04,12,10,01,11.20
2014,04,12,10,02,11.30
2014,04,12,10,03,11.30
2014,04,12,10,04,11.30
2014,04,12,10,05,11.40
2014,04,12,10,06,11.50
2014,04,12,10,07,11.50
2014,04,12,10,08,11.50
2014,04,12,10,09,11.50
2014,04,12,10,10,11.50
2014,04,12,10,11,11.60
2014,04,12,10,12,11.60
2014,04,12,10,13,11.70
2014,04,12,10,14,11.70
2014,04,12,10,15,11.80
2014,04,12,10,16,11.80
2014,04,12,10,17,11.90
2014,04,12,10,18,11.90
2014,04,12,10,19,12.00
2014,04,12,10,20,12.10
2014,04,12,10,21,12.10
2014,04,12,10,22,12.10
2014,04,12,10,23,12.00
2014,04,12,10,24,12.00
2014,04,12,10,25,11.90
2014,04,12,10,26,11.90
2014,04,12,10,27,11.90
2014,04,12,10,28,11.90
2014,04,12,10,29,11.90
2014,04,12,10,30,11.90
2014,04,12,10,31,11.90
2014,04,12,10,32,11.90
2014,04,12,10,33,11.90
2014,04,12,10,34,11.90
2014,04,12,10,35,11.90
2014,04,12,10,36,11.80
2014,04,12,10,37,11.80
2014,04,12,10,38,11.80
2014,04,12,10,39,11.80
2014,04,12,10,40,11.80
2014,04,12,10,41,11.70
2014,04,12,10,42,11.70
2014,04,12,10,43,11.80
2014,04,12,10,44,11.80
2014,04,12,10,45,11.80
2014,04,12,10,46,11.80
2014,04,12,10,47,11.80
2014,04,12,10,48,11.80
2014,04,12,10,49,11.80
2014,04,12,10,50,11.80
2014,04,12,10,51,11.80
2014,04,12,10,52,11.80
2014,04,12,10,53,11.70
2014,04,12,10,54,11.70
2014,04,12,10,55,11.60
2014,04,12,10,56,11.50
2014,04,12,10,57,11.50
2014,04,12,10,58,11.40
2014,04,12,10,59,11.30
2014,04,12,11,00,11.30
2014,04,12,11,01,11.20
2014,04,12,11,02,11.20
2014,04,12,11,03,11.10
2014,04,12,11,04,11.10
2014,04,12,11,05,11.10
2014,04,12,11,06,11.00
2014,04,12,11,07,11.10
2014,04,12,11,08,11.10
2014,04,12,11,09,11.10
2014,04,12,11,10,11.20
2014,04,12,11,11,11.20
2014,04,12,11,12,11.20
2014,04,12,11,13,11.20
2014,04,12,11,14,11.20
2014,04,12,11,15,11.20
2014,04,12,11,16,11.20
2014,04,12,11,17,11.20
2014,04,12,11,18,11.30
2014,04,12,11,19,11.30
2014,04,12,11,20,11.40
2014,04,12,11,21,11.40
2014,04,12,11,22,11.40
2014,04,12,11,23,11.50
2014,04,12,11,24,11.50
2014,04,12,11,25,11.50
2014,04,12,11,26,11.50
2014,04,12,11,27,11.50
2014,04,12,11,28,11.50
2014,04,12,11,29,11.50
2014,04,12,11,30,11.50
2014,04,12,11,31,11.60
2014,04,12,11,32,11.60
2014,04,12,11,33,11.60
2014,04,12,11,34,11.60
2014,04,12,11,35,11.60
2014,04,12,11,36,11.60
2014,04,12,11,37,11.60
2014,04,12,11,38,11.60
2014,04,12,11,39,11.60
2014,04,12,11,40,11.60
2014,04,12,11,41,11.60
2014,04,12,11,42,11.60
2014,04,12,11,43,11.60
2014,04,12,11,44,11.70
2014,04,12,11,45,11.70
2014,04,12,11,46,11.70
2014,04,12,11,47,11.60
2014,04,12,11,48,11.50
2014,04,12,11,49,11.50
2014,04,12,11,50,11.40
2014,04,12,11,51,11.40
2014,04,12,11,52,11.40
2014,04,12,11,53,11.40
2014,04,12,11,54,11.40
2014,04,12,11,55,11.30
2014,04,12,11,56,11.30
2014,04,12,11,57,11.40
2014,04,12,11,58,11.40
2014,04,12,11,59,11.50
2014,04,12,12,00,11.60
2014,04,12,12,01,11.60
2014,04,12,12,02,11.60
2014,04,12,12,03,11.60
2014,04,12,12,04,11.60
2014,04,12,12,05,11.60
2014,04,12,12,06,11.60
2014,04,12,12,07,11.50
2014,04,12,12,08,11.50
2014,04,12,12,09,11.40
2014,04,12,12,10,11.20
2014,04,12,12,11,11.20
2014,04,12,12,12,11.10
2014,04,12,12,13,11.10
2014,04,12,12,14,11.00
2014,04,12,12,15,11.00
2014,04,12,12,16,11.10
2014,04,12,12,17,11.10
2014,04,12,12,18,11.20
2014,04,12,12,19,11.20
2014,04,12,12,20,11.20
2014,04,12,12,21,11.20
2014,04,12,12,22,11.20
2014,04,12,12,23,11.20
2014,04,12,12,24,11.30
2014,04,12,12,25,11.40
2014,04,12,12,26,11.50
2014,04,12,12,27,11.50
2014,04,12,12,28,11.50
2014,04,12,12,29,11.50
2014,04,12,12,30,11.50
2014,04,12,12,31,11.60
2014,04,12,12,32,11.70
2014,04,12,12,33,11.70
2014,04,12,12,34,11.70
2014,04,12,12,35,11.70
2014,04,12,12,36,11.70
2014,04,12,12,37,11.70
2014,04,12,12,38,11.80
2014,04,12,12,39,11.90
2014,04,12,12,40,12.00
2014,04,12,12,41,12.00
2014,04,12,12,42,12.10
2014,04,12,12,43,12.20
2014,04,12,12,44,12.30
2014,04,12,12,45,12.30
2014,04,12,12,46,12.40
2014,04,12,12,47,12.40
2014,04,12,12,48,12.50
2014,04,12,12,49,12.50
2014,04,12,12,50,12.50
2014,04,12,12,51,12.50
2014,04,12,12,52,12.50
2014,04,12,12,53,12.60
2014,04,12,12,54,12.60
2014,04,12,12,55,12.60
2014,04,12,12,56,12.70
2014,04,12,12,57,12.80
2014,04,12,12,58,12.80
2014,04,12,12,59,12.80
2014,04,12,13,00,12.80
2014,04,12,13,01,12.80
2014,04,12,13,02,12.80
2014,04,12,13,03,12.80
2014,04,12,13,04,12.80
2014,04,12,13,05,12.80
2014,04,12,13,06,12.80
2014,04,12,13,07,12.80
2014,04,12,13,08,12.70
2014,04,12,13,09,12.80
2014,04,12,13,10,12.80
2014,04,12,13,11,12.70
2014,04,12,13,12,12.70
2014,04,12,13,13,12.70
2014,04,12,13,14,12.70
2014,04,12,13,15,12.70
2014,04,12,13,16,12.60
2014,04,12,13,17,12.60
2014,04,12,13,18,12.50
2014,04,12,13,19,12.60
2014,04,12,13,20,12.60
2014,04,12,13,21,12.70
2014,04,12,13,22,12.60
2014,04,12,13,23,12.60
2014,04,12,13,24,12.60
2014,04,12,13,25,12.60
2014,04,12,13,26,12.50
2014,04,12,13,27,12.50
2014,04,12,13,28,12.60
2014,04,12,13,29,12.70
2014,04,12,13,30,12.80
2014,04,12,13,31,12.80
2014,04,12,13,32,12.80
2014,04,12,13,33,12.80
2014,04,12,13,34,12.70
2014,04,12,13,35,12.70
2014,04,12,13,36,12.70
2014,04,12,13,37,12.70
2014,04,12,13,38,12.70
2014,04,12,13,39,12.80
2014,04,12,13,40,12.80
2014,04,12,13,41,12.90
2014,04,12,13,42,12.90
2014,04,12,13,43,13.00
2014,04,12,13,44,13.10
2014,04,12,13,45,13.20
2014,04,12,13,46,13.30
2014,04,12,13,47,13.40
2014,04,12,13,48,13.50
2014,04,12,13,49,13.60
2014,04,12,13,50,13.70
2014,04,12,13,51,13.70
2014,04,12,13,52,13.60
2014,04,12,13,53,13.50
2014,04,12,13,54,13.40
2014,04,12,13,55,13.40
2014,04,12,13,56,13.50
2014,04,12,13,57,13.50
2014,04,12,13,58,13.60
2014,04,12,13,59,13.70
2014,04,12,14,00,13.70
2014,04,12,14,01,13.70
2014,04,12,14,02,13.70
2014,04,12,14,03,13.80
2014,04,12,14,04,13.80
2014,04,12,14,05,13.80
2014,04,12,14,06,13.90
2014,04,12,14,07,14.00
2014,04,12,14,08,14.10
2014,04,12,14,09,14.10
2014,04,12,14,10,14.20
2014,04,12,14,11,14.30
2014,04,12,14,12,14.30
2014,04,12,14,13,14.40
2014,04,12,14,14,14.40
2014,04,12,14,15,14.50
2014,04,12,14,16,14.60
2014,04,12,14,17,14.70
2014,04,12,14,18,14.80
2014,04,12,14,19,14.80
2014,04,12,14,20,14.90
2014,04,12,14,21,15.00
2014,04,12,14,22,15.00
2014,04,12,14,23,15.10
2014,04,12,14,24,15.10
2014,04,12,14,25,15.20
2014,04,12,14,26,15.20
2014,04,12,14,27,15.20
2014,04,12,14,28,15.20
2014,04,12,14,29,15.20
2014,04,12,14,30,15.30
2014,04,12,14,31,15.30
2014,04,12,14,32,15.30
2014,04,12,14,33,15.30
2014,04,12,14,34,15.30
2014,04,12,14,35,15.30
2014,04,12,14,36,15.40
2014,04,12,14,37,15.40
2014,04,12,14,38,15.40
2014,04,12,14,39,15.40
2014,04,12,14,40,15.40
2014,04,12,14,41,15.50
2014,04,12,14,42,15.50
2014,04,12,14,43,15.50
2014,04,12,14,44,15.60
2014,04,12,14,45,15.70
2014,04,12,14,46,15.70
2014,04,12,14,47,15.80
2014,04,12,14,48,15.80
2014,04,12,14,49,15.80
2014,04,12,14,50,15.80
2014,04,12,14,51,15.80
2014,04,12,14,52,15.70
2014,04,12,14,53,15.70
2014,04,12,14,54,15.70
2014,04,12,14,55,15.60
2014,04,12,14,56,15.50
2014,04,12,14,57,15.40
2014,04,12,14,58,15.40
2014,04,12,14,59,15.30
2014,04,12,15,00,15.30
2014,04,12,15,01,15.20
2014,04,12,15,02,15.20
2014,04,12,15,03,15.20
2014,04,12,15,04,15.10
2014,04,12,15,05,15.10
2014,04,12,15,06,15.10
2014,04,12,15,07,15.20
2014,04,12,15,08,15.20
2014,04,12,15,09,15.20
2014,04,12,15,10,15.30
2014,04,12,15,11,15.30
2014,04,12,15,12,15.30
2014,04,12,15,13,15.40
2014,04,12,15,14,15.40
2014,04,12,15,15,15.50
2014,04,12,15,16,15.60
2014,04,12,15,17,15.70
2014,04,12,15,18,15.70
2014,04,12,15,19,15.80
2014,04,12,15,20,15.80
2014,04,12,15,21,15.90
2014,04,12,15,22,15.90
2014,04,12,15,23,15.90
2014,04,12,15,24,16.00
2014,04,12,15,25,16.00
2014,04,12,15,26,16.00
2014,04,12,15,27,16.10
2014,04,12,15,28,16.10
2014,04,12,15,29,16.20
2014,04,12,15,30,16.20
2014,04,12,15,31,16.20
2014,04,12,15,32,16.20
2014,04,12,15,33,16.20
2014,04,12,15,34,16.30
2014,04,12,15,35,16.30
2014,04,12,15,36,16.30
2014,04,12,15,37,16.30
2014,04,12,15,38,16.30
2014,04,12,15,39,16.40
2014,04,12,15,40,16.40
2014,04,12,15,41,16.40
2014,04,12,15,42,16.40
2014,04,12,15,43,16.40
2014,04,12,15,44,16.40
2014,04,12,15,45,16.50
2014,04,12,15,46,16.50
2014,04,12,15,47,16.50
2014,04,12,15,48,16.60
2014,04,12,15,49,16.60
2014,04,12,15,50,16.70
2014,04,12,15,51,16.70
2014,04,12,15,52,16.70
2014,04,12,15,53,16.80
2014,04,12,15,54,16.80
2014,04,12,15,55,16.80
2014,04,12,15,56,16.90
2014,04,12,15,57,16.90
2014,04,12,15,58,16.90
2014,04,12,15,59,17.00
2014,04,12,16,00,17.00
2014,04,12,16,01,17.10
2014,04,12,16,02,17.20
2014,04,12,16,03,17.20
2014,04,12,16,04,17.30
2014,04,12,16,05,17.30
2014,04,12,16,06,17.40
2014,04,12,16,07,17.50
2014,04,12,16,08,17.50
2014,04,12,16,09,17.50
2014,04,12,16,10,17.40
2014,04,12,16,11,17.40
2014,04,12,16,12,17.40
2014,04,12,16,13,17.40
2014,04,12,16,14,17.40
2014,04,12,16,15,17.40
2014,04,12,16,16,17.40
2014,04,12,16,17,17.40
2014,04,12,16,18,17.40
2014,04,12,16,19,17.50
2014,04,12,16,20,17.50
2014,04,12,16,21,17.60
2014,04,12,16,22,17.70
2014,04,12,16,23,17.70
2014,04,12,16,24,17.80
2014,04,12,16,25,17.80
2014,04,12,16,26,17.80
2014,04,12,16,27,17.80
2014,04,12,16,28,17.80
2014,04,12,16,29,17.80
2014,04,12,16,30,17.70
2014,04,12,16,31,17.70
2014,04,12,16,32,17.60
2014,04,12,16,33,17.50
2014,04,12,16,34,17.50
2014,04,12,16,35,17.50
2014,04,12,16,36,17.60
2014,04,12,16,37,17.60
2014,04,12,16,38,17.70
2014,04,12,16,39,17.70
2014,04,12,16,40,17.70
2014,04,12,16,41,17.70
2014,04,12,16,42,17.80
2014,04,12,16,43,17.80
2014,04,12,16,44,17.80
2014,04,12,16,45,17.70
2014,04,12,16,46,17.70
2014,04,12,16,47,17.70
2014,04,12,16,48,17.70
2014,04,12,16,49,17.60
2014,04,12,16,50,17.50
2014,04,12,16,51,17.50
2014,04,12,16,52,17.50
2014,04,12,16,53,17.50
2014,04,12,16,54,17.50
2014,04,12,16,55,17.50
2014,04,12,16,56,17.50
2014,04,12,16,57,17.50
2014,04,12,16,58,17.50
2014,04,12,16,59,17.60
2014,04,12,17,00,17.60
2014,04,12,17,01,17.60
2014,04,12,17,02,17.60
2014,04,12,17,03,17.60
2014,04,12,17,04,17.60
2014,04,12,17,05,17.60
2014,04,12,17,06,17.60
2014,04,12,17,07,17.60
2014,04,12,17,08,17.60
2014,04,12,17,09,17.60
2014,04,12,17,10,17.70
2014,04,12,17,11,17.70
2014,04,12,17,12,17.70
2014,04,12,17,13,17.70
2014,04,12,17,14,17.80
2014,04,12,17,15,17.80
2014,04,12,17,16,17.80
2014,04,12,17,17,17.80
2014,04,12,17,18,17.80
2014,04,12,17,19,17.80
2014,04,12,17,20,17.80
2014,04,12,17,21,17.80
2014,04,12,17,22,17.80
2014,04,12,17,23,17.80
2014,04,12,17,24,17.80
2014,04,12,17,25,17.70
2014,04,12,17,26,17.70
2014,04,12,17,27,17.70
2014,04,12,17,28,17.70
2014,04,12,17,29,17.70
2014,04,12,17,30,17.70
2014,04,12,17,31,17.70
2014,04,12,17,32,17.70
2014,04,12,17,33,17.70
2014,04,12,17,34,17.70
2014,04,12,17,35,17.70
2014,04,12,17,36,17.70
2014,04,12,17,37,17.80
2014,04,12,17,38,17.80
2014,04,12,17,39,17.80
2014,04,12,17,40,17.80
2014,04,12,17,41,17.80
2014,04,12,17,42,17.80
2014,04,12,17,43,17.80